Location: Fredericksburg
(30.2750°N, 98.8720°W)
Time: 12:15:05
(UTC-05:00)

Daily predictions for brighter satellites

Satellite Brightness Start Highest point End
(mag) Time Altitude Azimuth Time Altitude Azimuth Time Altitude Azimuth
YAOGAN 1 4.5 19:42:30 10° SSW 19:46:29 36° W 19:50:29 10° NNW
Cosmos 1378 4.1 19:44:37 10° NNE 19:47:50 27° E 19:51:03 10° SE
Tiangong 2 3.9 19:47:55 10° W 19:49:53 15° SW 19:51:51 10° S
MSX 3.9 19:44:21 10° SSE 19:50:05 89° ENE 19:55:51 10° NNW
Cosmos 1441 Rocket 3.3 19:47:52 10° N 19:51:37 80° W 19:55:21 10° S
SAR-Lupe-4 4.1 19:48:26 10° SE 19:51:45 38° ENE 19:55:04 10° N
Resurs 01 Rocket 2.9 19:50:44 10° ESE 19:54:00 20° ENE 19:57:17 10° NNE
Meteor 1-28 Rocket 3.3 19:51:27 10° NNE 19:55:05 53° E 19:58:42 10° S
Okean 3 Rocket 3.7 19:51:17 10° N 19:55:46 60° E 20:00:15 10° SSE
Abrixas 2.5 19:53:33 10° SW 19:56:30 62° SE 19:59:28 10° NE
Cosmos 2278 Rocket 2.4 19:51:00 10° NNW 19:56:40 78° WSW 20:02:17 10° SSE
Meteor 1-22 Rocket 4.1 19:52:35 10° S 19:57:59 87° E 20:03:17 10° N
CENTAUR R/B 3.5 19:56:32 10° SSE 20:00:47 21° ESE 20:05:17 10° ENE
Spot 2 Rocket 4.3 19:58:19 10° SE 20:02:37 29° ENE 20:06:55 10° NNE
Delta 168 4.1 19:58:38 10° WSW 20:02:46 43° SSE 20:08:13 12° E
Cosmos 2297 3.8 19:57:18 10° N 20:02:49 53° ENE 20:08:17 10° SE
NOSS 3-2 (C) 3.7 19:58:28 10° SW 20:04:25 75° WNW 20:10:49 10° NNE
Helios 1A 4.2 20:01:36 10° ESE 20:04:51 22° ENE 20:08:07 10° NNE
Cosmos 1707 3.5 20:02:06 10° NNW 20:05:52 55° W 20:09:37 10° S
Centaur D-1A AC-32 3.6 20:05:46 10° WSW 20:09:04 25° SSW 20:11:57 10° SE
Cosmos 1943 4.4 20:06:02 10° SE 20:09:44 18° E 20:13:25 10° ENE
Meteor 1-24 Rocket 3.6 20:07:01 10° N 20:12:36 85° E 20:17:59 10° S
Cosmos 724 4.3 20:07:22 10° SSW 20:13:11 73° ESE 20:19:11 10° NNE
Cosmos 1603 3.8 20:08:00 10° S 20:13:33 54° ESE 20:19:07 10° NNE
Cosmos 2056 Rocket 3.5 20:08:29 10° NNW 20:13:56 83° ENE 20:19:19 10° SSE
SJ-6B 2.7 20:11:07 10° SSE 20:15:01 71° ENE 20:19:01 10° N
GPS 2-04 Rocket1 2.3 20:13:45 10° WSW 20:17:13 84° SSE 20:19:40 19° ENE
HJ-1C 3.7 20:21:51 10° SSE 20:25:03 43° ENE 20:28:15 10° N
Cosmos 1758 3.2 20:22:06 10° S 20:26:08 71° E 20:30:12 10° N
Milstar 3 4.4 20:17:09 10° W 20:27:01 82° S 20:41:46 20° E
Spot 1 4.3 20:22:40 10° SSE 20:27:27 63° ENE 20:31:59 10° N
Meteor 2-12 Rocket 4.4 20:22:30 10° S 20:28:33 64° E 20:34:37 10° NNE
NOAA 12 4.1 20:24:07 10° SSE 20:29:21 90° WSW 20:34:39 10° NNW
ISS -3.5 20:28:21 10° SW 20:31:35 81° SE 20:33:16 26° NE
FengYun 1-2 T 4.4 20:30:05 10° SSE 20:35:23 49° ENE 20:40:39 10° N
OAO 3 Rocket 3.8 20:33:33 10° WNW 20:38:09 47° N 20:40:37 25° ENE
Timation 1 Rocket 4.2 20:32:14 10° NNW 20:38:12 77° ENE 20:44:09 10° SSE
In-Cosmos 22 4.2 20:35:41 10° N 20:41:29 76° E 20:47:11 10° SSE
ASTRO E2 2.7 20:37:46 10° W 20:41:49 77° N 20:43:08 41° E
ALOS 2.6 20:42:33 31° ESE 20:44:09 41° ENE 20:48:31 10° N
FUSE 4.4 20:39:11 10° WSW 20:44:18 47° S 20:46:23 31° ESE
Cosmos 1766 Rocket 3.4 20:40:09 10° N 20:44:31 90° E 20:48:50 10° S
USA 215 4.1 20:38:40 10° NNE 20:44:55 50° NW 20:51:09 10° WSW
Meteor 1-29 3.5 20:45:36 10° N 20:49:04 59° WNW 20:52:29 10° SSW
BREEZE-M DEB (TANK) 4.1 20:30:02 10° NW 20:49:31 76° NE 20:52:19 32° ESE
Helios 1B rocket 3.3 20:47:04 10° N 20:51:03 50° WNW 20:55:01 10° SSW
Cosmos 2034 Rocket 4.4 20:46:21 10° SSW 20:52:31 66° W 20:58:48 10° N
ATLAS 5 CENTAUR R/B 3.9 20:50:24 10° WSW 20:54:24 27° NW 20:58:37 10° N
Cosmos 1076 Rocket 4.4 20:51:11 10° NNW 20:55:23 50° W 20:59:35 10° SSW
Cosmos-2242 3.7 20:51:24 10° SSW 20:55:39 55° W 20:59:57 10° N
Meteor 1-21 Rocket 4.0 20:53:50 10° N 20:59:22 81° E 21:04:53 10° S
SeaSat 1 2.4 20:54:36 10° NNE 20:59:29 59° ESE 21:04:19 10° SSW
Atlas Centaur 2 3.4 20:53:49 10° W 21:02:07 55° SSW 21:06:05 30° SE
ASC 2 Rocket 4.2 21:00:35 10° WSW 21:04:10 27° S 21:04:26 27° S
CZ-2D R/B 4.5 21:09:15 32° N 21:09:15 32° N 21:11:30 10° N
Meteosat 1 Rocket2 3.6 21:02:38 10° WSW 21:08:59 53° S 21:09:26 51° SSE
Cosmos 1452 Rocket 3.7 21:05:14 10° NNW 21:10:27 70° WSW 21:13:49 22° S
Centaur AC-146 4.3 21:08:32 10° SSW 21:08:53 11° S 21:08:53 11° S
Cosmos 1842 Rocket 3.4 21:06:49 10° S 21:11:08 85° W 21:15:28 10° N
SEDSat Delta rocket 4.0 21:05:28 10° W 21:12:15 82° N 21:14:10 51° E
ATLAS CENTAUR R/B 4.1 21:11:04 10° WNW 21:12:58 13° WSW 21:14:48 10° SW
Cosmos 1500 Rocket 4.5 21:13:47 10° N 21:16:35 38° N 21:16:35 38° N
H-2A R/B 4.3 21:25:25 29° NNW 21:25:25 29° NNW 21:27:26 10° NNW
Gbstr 26 Del rocket 3.9 21:23:19 10° WSW 21:27:34 51° NW 21:28:31 44° N
Resurs 01 Rocket 3.7 21:26:32 10° SSW 21:30:16 26° W 21:34:01 10° NW
FENGYUN 3A 4.0 21:29:17 36° SSW 21:31:25 64° W 21:36:45 10° NNW
Cosmos 1420 Rocket 4.0 21:27:13 10° NNW 21:32:19 80° WNW 21:32:19 80° WNW
CENTAUR R/B 3.3 21:45:09 10° SW 21:50:49 47° NW 21:57:08 10° NNE
Cosmos 1943 4.1 21:47:57 10° SW 21:53:20 45° WNW 21:58:42 10° N
Cosmos 2369 Rocket 3.6 21:53:20 10° NNW 21:56:06 30° N 21:56:06 30° N
BREEZE-M DEB (TANK) 4.3 21:51:43 10° NW 22:10:35 62° SW 22:10:47 62° SW
